OBJECT F, 63330

Orbit data source: Space-Track

You're viewing an Uncataloged Satellite

Recently launched and/or uncataloged satellites may have evolving metadata. Metadata may include but not limited to: Owner, Maufacturer, Bus, Motor, and Mission.

OBJECT F, 63330 is a satellite owned by MO RF (CIS) in LEO that was launched on Wed, 05 Feb 2025 UTC via a SOYUZ-2-1V launch vehicle from the Plesetsk Missile And Space Complex (PKMTR). Unknown objects in Earth's orbit typically refer to objects detected orbiting the Earth but have not yet been identified or cataloged. These objects could be anything from previously untracked satellites, spent rocket stages, debris from satellite collisions, or even natural meteoroids temporarily captured by Earth's gravity.

Loading next visibility...
Identifier
63330, 2025-026F
Orbit
LEO
Country
Flag of CISCIS
Related business
Manufacturer
VNIIEM
Mission
Defense Imaging
Bus & Motor
EMKA, Unknown motor
Mass
Unknown
Launch date (UTC)
2025-02-05 (1 year ago)
Launch vehicle
SOYUZ-2-1V
Launch site
Plesetsk Missile And Space Complex (PKMTR)
Object type
Unknown
Shape & HBR
Unknown shape, 0.4 m
Radar Cross Section
Medium (>0.1 m² and <1 m²)

Expand to show TLE details & history
Last TLE update: 13 hours ago

TLE from 13 hours ago
0 OBJECT F
1 63330U 25026F   26171.41495809  .00002407  00000-0  20433-3 0  9995
2 63330  81.9933  70.0897 0013193  54.7211 305.5242 14.97479539 68539
Epoch: 2026-06-20T09:57Z
TLE epoch observation values (Epoch: 2026-06-20T09:57:32.378Z)
Latitude
-0.00007°
Longitude
12.07487°
Altitude
572.406 km
Speed
7.578 km/s
True Right ascension
04h 40m 21s
True Declination
0° 00' 00"
Sunlit
Object was in daylight at epoch
Visualization orbit readout
Latitude
Unknown
Longitude
Unknown
Altitude
Unknown
Speed
Unknown
Apparent Right ascension
Unknown
Apparent Declination
Unknown
Sunlit
N/A
Visualization observer readout
Local Sidereal Time
10:19:01
Azimuth
Unknown
Elevation
Unknown
Doppler factor
Unknown
Orbital elements
Apogee altitude
580.878 km
Perigee altitude
562.541 km
Semi-major axis
6,949.847 km
Eccentricity
0.00132
Inclination
81.9933°
RAAN
70.0897°
Arg. of periapsis
54.7211°
True anomaly
305.40104°
Mean anomaly
305.5242°
Eccentric anomaly
305.46263°
Mean motion
3.74611 °/min
Orbital period
96.1 mins
BSTAR
0.00020433
Loading maneuver chart data...
Computing Atmospheric mass density...
Loading historical data...
Loading historical data...
Loading historical data...
Loading historical data...
Loading historical data...
Loading historical data...
Loading historical data...

Documentation

Showing up to 5 results
|